Regional Weather Roundup
Issued by NWS

Home | Current Version | Previous Version | Text Only | Print | Product List | Glossary On
Versions: 1 2 3 4 5 6 7 8 9 10 11 12 13 14 15 16 17 18 19 20 21 22 23 24 25 26 27 28 29 30 31 32 33 34 35 36 37 38 39 40 41 42 43 44 45 46 47 48 49 50
000
ASUS43 KLSX 240110
RWRMO

WEATHER SUMMARY FOR MISSOURI
NATIONAL WEATHER SERVICE SPRINGFIELD MO
800 PM CDT SAT JUL 23 2016

NOTE: "FAIR" INDICATES FEW OR NO CLOUDS BELOW 12,000 FEET WITH NO
       SIGNIFICANT WEATHER AND/OR OBSTRUCTIONS TO VISIBILITY.
       CURRENT SKY AND/OR WEATHER CONDITIONS ARE NOT AVAILABLE FOR
       CHILLICOTHE AND FARMINGTON.

MOZ001>031-035>038-043-044-053-054-240200-
...NORTHERN AND WESTERN MISSOURI...

CITY           SKY/WX    TMP DP  RH WIND       PRES   REMARKS
KANSAS CTY INT CLOUDY    85  76  74 S8        29.85F HX  94
KANSAS C DTWN  CLOUDY    91  71  51 S7        29.83F HX  97
LEE`S SUMMIT   CLEAR     91  73  55 S7        29.87S HX  99
ST JOSEPH      CLOUDY    86  74  67 S9        29.81F HX  94
CHILLICOTHE      N/A     89  79  72 S3        29.86S HX 104
KIRKSVILLE     CLOUDY    86  78  77 S6        29.88S HX  98

$$
MOZ066>068-077>081-088>096-101>105-240200-
...SOUTHWEST MISSOURI...

CITY           SKY/WX    TMP DP  RH WIND       PRES   REMARKS
SPRINGFIELD    CLEAR     91  74  57 CALM      29.93R HX 100
JOPLIN         CLEAR     91  74  57 CALM      29.90R HX 100
BRANSON        PTCLDY    90  75  62 CALM      29.95R HX 100

$$
MOZ032>034-039>042-045>050-055>058-069>072-240200-
...CENTRAL MISSOURI...

CITY           SKY/WX    TMP DP  RH WIND       PRES   REMARKS
COLUMBIA       CLEAR     88  77  69 S5        29.90R HX 100
JEFFERSON CITY CLEAR     91  76  61 SE5       29.88R HX 103
ROLLA          CLEAR     88  78  72 SE7       29.92R HX 101
SEDALIA        CLEAR     89  76  65 S6        29.90R HX 100
WHITEMAN AFB   CLEAR     86  77  74 S6        29.87S HX  96
OSAGE BEACH    CLEAR     87  79  76 CALM      29.91R HX 101

$$
MOZ051-052-059>065-240200-
...EAST CENTRAL MISSOURI...

CITY           SKY/WX    TMP DP  RH WIND       PRES   REMARKS
ST LOUIS INTL  PTCLDY    91  73  55 SE13      29.91R HX  99
SPIRIT OF STL  CLEAR     89  76  65 S6        29.89R HX 100
ST CHARLES     CLEAR     87  78  74 SE8       29.89R HX 100

$$
MOZ072>076-082>087-097>100-106>115-240200-
...SOUTH CENTRAL AND SOUTHEAST MISSOURI...

CITY           SKY/WX    TMP DP  RH WIND       PRES   REMARKS
CAPE GIRARDEAU CLEAR     85  76  74 SE5       29.92R HX  94
FARMINGTON     CLEAR     86  76  71 E3        29.95R HX  96
POPLAR BLUFF   CLEAR     86  75  69 CALM      29.91R HX  95
WEST PLAINS    MOCLDY    87  70  56 S7        29.98R HX  92

$$




USA.gov is the U.S. government's official web portal to all federal, state and local government web resources and services.